User: anonymous   Login
Location: ASU Dark Sky Observatory
(36.2504°N, 81.4125°W)
Time: 11:26:36
(UTC-05:00)
Language:

ETS-7 - Orbit

View from above orbital plane
View from above orbital plane
View from above satellite
View from above satellite

Ground track
Ground track

The orbit data is extracted from the following two-line orbital elements,

1 25064U 97074B   14324.18133613  .00039766  00000-0  56269-3 0  3079
2 25064 034.9614 323.6585 0003346 153.8781 257.0295 15.55436794945419
Epoch (UTC): 20 November 2014 04:21:07
Eccentricity: 0.0003346
inclination: 34.9614°
perigee height: 398 km
apogee height: 403 km
right ascension of ascending node: 323.6585°
argument of perigee: 153.8781°
revolutions per day: 15.55436794
mean anomaly at epoch: 257.0295°
orbit number at epoch: 94541

The dashed part of the orbit path shows where the satellite is in the earth's shadow,  

DLR